Regional Weather Roundup
Issued by NWS Charleston, SC

Current Version | Previous Version | Graphics & Text | Print | Product List | Glossary On
Versions: 1 2 3 4 5 6 7 8 9 10 11 12 13 14 15 16 17 18 19 20 21 22 23 24 25 26 27 28 29 30 31 32 33 34 35 36 37 38 39 40 41 42 43 44 45 46 47 48 49 50
000 ASUS42 KCHS 310312 RWRCHS REGIONAL WEATHER ROUNDUP NATIONAL WEATHER SERVICE CHARLESTON SC 1100 PM EDT THU JUL 30 2015 NOTE: "FAIR" INDICATES FEW OR NO CLOUDS BELOW 12,000 FEET WITH NO SIGNIFICANT WEATHER AND/OR OBSTRUCTIONS TO VISIBILITY. NOT ALL STATIONS ARE QUALITY CONTROLLED BY THE NATIONAL WEATHER SERVICE. USE DATA WITH CAUTION...ESPECIALLY DEWPOINT OBSERVATIONS. SCZ027-030-031-034>040-042>050-310400- ...SOUTHEAST SOUTH CAROLINA... CITY SKY/WX TMP DP RH WIND PRES REMARKS N CHARLESTON MOCLDY 83 72 69 W5 29.92R WATERFRONT PRK N/A 85 74 69 VRB3 29.90R HX 93 MOUNT PLEASANT LGT RAIN 77 75 94 CALM 29.93R JOHNS ISLAND FAIR 84 73 70 CALM 29.93R HX 91 PINOPOLIS NOT AVBL MONCKS CORNER FAIR 81 75 83 CALM 29.93R SUMMERVILLE NOT AVBL BEAUFORT MCAS MOCLDY 84 73 69 S5 29.93R HX 90 BEAUFORT ARPT FAIR 81 77 89 CALM 29.93R HILTON HEAD IS MOCLDY 84 75 74 CALM 29.94R HX 92 WALTERBORO PTCLDY 81 77 89 CALM 29.94R ALLENDALE FAIR 79 77 94 CALM 29.92R ...SOUTHERN MIDLANDS AND PEE DEE... CITY SKY/WX TMP DP RH WIND PRES REMARKS GEORGETOWN NOT AVBL KINGSTREE NOT AVBL ORANGEBURG MOCLDY 77 74 90 CALM 29.93R BARNWELL FAIR 81 79 94 CALM 29.94R AIKEN FAIR 79 72 78 S3 29.97R MANNING FAIR 81 72 74 SW5 29.92R COLUMBIA PTCLDY 84 73 69 S3 29.91R HX 90 SUMTER PTCLDY 80 73 79 SW5 29.89R FLORENCE MOCLDY 84 76 76 E6 29.91R HX 93 MYRTLE BEACH PTCLDY 84 72 65 SE3 29.93R N MYRTLE BEACH CLEAR 82 75 79 CALM 29.92R $$ GAZ063-065-086>088-099>101-113>116-118-119-134>141-150-310400- ...SOUTHEAST GEORGIA... CITY SKY/WX TMP DP RH WIND PRES REMARKS SAVANNAH ARPT CLOUDY 85 70 60 SW5 29.94R HUNTER AAF MOCLDY 85 75 70 S7 29.91R HX 93 FORT STEWART MOCLDY 83 74 76 VRB5 29.92R STATESBORO CLOUDY 85 78 82 S3 29.94R HX 96 SYLVANIA CLOUDY 85 78 81 CALM 29.94R HX 97 CLAXTON FAIR 82 77 83 S5 29.93R HX 91 ...CSRA...CENTRAL AND FAR SOUTHEAST GEORGIA... CITY SKY/WX TMP DP RH WIND PRES REMARKS THOMSON PTCLDY 81 78 89 CALM 29.97R HX 90 AUGUSTA-BUSH PTCLDY 79 75 87 CALM 29.92R AUGUSTA-DANIEL PTCLDY 83 73 72 CALM 29.94R SWAINSBORO FAIR 84 79 84 CALM 29.95R HX 96 VIDALIA PTCLDY 82 77 83 W3 29.95R HX 91 EASTMAN FAIR 77 77 100 CALM 29.97R HAZLEHURST FAIR 83 77 81 SW5 29.95R HX 93 ALMA CLEAR 80 75 84 CALM 29.95R WAYCROSS MOCLDY 83 79 90 CALM 29.96R HX 94 JESUP CLOUDY 86 77 74 CALM 29.96R HX 97 BAXLEY FAIR 82 75 78 CALM 29.95R BRUNSWICK CLEAR 84 73 70 SW9 29.96R HX 91 SAINT SIMONS PTCLDY 83 74 74 SW7 29.95R $$ SCZ027-028-034-036>038-045-046-048>050-GAZ119-141-310400- ...LAKE AND SUPPLEMENTAL COASTAL OBSERVATIONS... STATION/POSITION TIME TEMP WIND PRES WAVE SWELL AIR SEA DIR/SP/G HT/PER HT/PER/DIR (UTC) (F) (DEG/KT/KT) (MB) (FT/S) (FT/S/D) UPR LAKE MARION NOT AVBL WINYAH BAY NOT AVBL LAKE MURRAY 0200 87 250/ 3/ 5 1011.9R ACE BASIN NERRS 0145 83 CALM 1013.0 FORT PULASKI 0200 85 87 200/ 6/ 9 1013.7R SAPELO ISLAND 0200 86 170/ 9 1013.0S $$ ANZ835-935-AMZ111-154-330-350-352-354-370-450-454-472-310400- ...C-MAN AND BUOY OBSERVATIONS... STATION/POSITION TIME TEMP WIND PRES WAVE SWELL AIR SEA DIR/SP/G HT/PER HT/PER/DIR (UTC) (F) (DEG/KT/KT) (MB) (FT/S) (FT/S/D) BUOY 41004 0250 85 84 230/ 10/ 10 1013.0R 3/ 9 2/ 9 BUOY 41008 0250 83 83 180/ 14/ 16 1014.0R 2/ 7 2/110/ 7 FOLLY BEACH CMAN 0200 85 220/ 9/ 11 1013.0R CAPERS NEARSHORE 0208 84 230/ 10/ 12 1013.1R FRIPP NEARSHORE NOT AVBL STATION/POSITION TIME TEMP WIND PRES WAVE SWELL AIR SEA DIR/SP/G HT/PER HT/PER/DIR (UTC) (F) (DEG/KT/KT) (MB) (FT/S) (FT/S/D) 5E ST. MARYS GA 0221 83 N/A 2/ 3 FRYING PAN BUOY 0250 84 85 140/ 2/ 4 1013.0R 4/ 7 3/150/ 7 BUOY 41025 0250 83 86 170/ 16/ 17 1013.1S 5/ 8 3/170/ 8 CAPE LOOKOUT NC 0200 82 160/ 6/ 7 1012.5R BUOY 41002 0250 82 81 210/ 23/ 29 1013.8R 12/ 9 BUOY 41010 0220 83 84 270/ 16/ 17 1015.4R ST AUGUSTINE FL 0300 78 83 220/ 5/ 6 1015.7R $$

USA.gov is the U.S. government's official web portal to all federal, state and local government web resources and services.